Track METEOR 1-23 now! 10-day predictions METEOR 1-23 is classified as:
1 08519U 75124A 21025.53139481 -.00000009 00000-0 -12131-4 0 9999 2 08519 81.2418 243.9000 0013827 141.1052 219.1117 14.10835250319253